Location: Hylvaty SDH
(49.9612°N, 16.4057°E)
Time: 12:42:56
(UTC+01:00)

Tiros 1 - Pass Details

Date: 09 October 2020
Orbit: 630 x 663 km, 48.4° (Epoch: 28 October)

Event Time Altitude Azimuth Distance (km) Brightness Sun altitude
Rises 18:19:54 0° 276° (W) 2,967 12.6 -1.6°
Reaches altitude 10° 18:24:09 10° 239° (WSW) 2,060 11.1 -2.3°
Maximum altitude 18:25:18 11° 225° (SW) 2,007 10.6 -2.5°
Drops below altitude 10° 18:26:27 10° 211° (SSW) 2,061 10.3 -2.7°
Sets 18:30:42 0° 175° (S) 2,974 10.6 -3.3°
